Brookings, OR

12:58 PM PDT on June 25, 2018 (GMT -0700)
Brookings State

Weather History for KBOK - March, 2011

Change the Weather History Date:

Friday, March 4, 2011

  Actual Average Record
Temperature  
Mean Temperature 48 °F -  
Max Temperature 52 °F 56 °F 76 °F (1959)
Min Temperature 43 °F 42 °F 30 °F (1955)
Degree Days  
Heating Degree Days 18    
Moisture  
Dew Point 47 °F    
Average Humidity 94    
Maximum Humidity 100    
Minimum Humidity 63    
Precipitation  
Precipitation 0.88 in - - ()
Sea Level Pressure  
Sea Level Pressure 30.20 in    
Wind  
Wind Speed 10 mph (SSE)    
Max Wind Speed 15 mph    
Max Gust Speed -    
Visibility 5 miles    
Events Rain    
Averages and records for this station are not official NWS values.
T = Trace of Precipitation, MM = Missing Value Source: NWS Daily Summary

Daily Weather History Graph

Daily Weather History Graph

Search for Another Location

Airport or City:

Astronomy

Mar. 04, 2011 Rise Set
Actual Time 6:47 AM PST 6:10 PM PST
Civil Twilight 6:19 AM PST 6:38 PM PST
Nautical Twilight 5:47 AM PST 7:11 PM PST
Astronomical Twilight 5:14 AM PST 7:43 PM PST
Moon 6:22 AM PST (3/4) 6:27 PM PST (3/4)
Length of Visible Light 12h 18m
Length of Day
11h 23m
Waning Crescent, 0% of the Moon is Illuminated
Mar 4
Waning Crescent
Mar 4
New
Mar 12
First Quarter
Mar 19
Full
Mar 26
Last Quarter

Hourly Weather History & Observations

Time (PST) Temp. Windchill Dew Point Humidity Pressure Visibility Wind Dir Wind Speed Gust Speed Precip Events Conditions
12:56 AM 45.0 °F 40.6 °F 43.0 °F 93% 30.26 in 10.0 mi ENE 8.1 mph - N/A   Overcast
1:56 AM 43.9 °F 38.8 °F 41.9 °F 93% 30.25 in 10.0 mi ENE 9.2 mph - N/A   Mostly Cloudy
2:56 AM 43.9 °F 39.9 °F 41.9 °F 93% 30.22 in 10.0 mi Variable 6.9 mph - N/A   Clear
3:56 AM 45.9 °F 42.9 °F 41.0 °F 83% 30.21 in 10.0 mi Variable 5.8 mph - N/A   Overcast
4:56 AM 46.9 °F - 39.9 °F 77% 30.21 in 10.0 mi Variable 4.6 mph - N/A   Overcast
5:56 AM 45.0 °F 41.8 °F 41.0 °F 86% 30.20 in 10.0 mi East 5.8 mph - N/A   Mostly Cloudy
6:56 AM 46.9 °F - 41.0 °F 80% 30.19 in 10.0 mi East 5.8 mph - N/A   Overcast
7:56 AM 47.8 °F - 39.9 °F 74% 30.19 in 10.0 mi SE 8.1 mph - N/A   Clear
8:56 AM 52.0 °F - 39.9 °F 63% 30.19 in 10.0 mi SSE 8.1 mph - N/A   Clear
9:56 AM 52.0 °F - 39.9 °F 63% 30.21 in 10.0 mi South 8.1 mph - N/A   Overcast
10:56 AM 50.9 °F - 41.9 °F 71% 30.23 in 10.0 mi South 10.4 mph - N/A   Overcast
12:56 PM 50.0 °F - 45.9 °F 86% 30.24 in 7.0 mi SSE 13.8 mph - 0.00 in Rain Light Rain
1:18 PM 48.2 °F - 46.4 °F 93% 30.22 in 3.0 mi South 12.7 mph - 0.01 in Rain Light Rain
1:25 PM 48.2 °F - 48.2 °F 100% 30.22 in 2.0 mi South 11.5 mph - 0.01 in Rain Light Rain
1:33 PM 48.2 °F - 48.2 °F 100% 30.22 in 5.0 mi South 10.4 mph - 0.01 in   Overcast
1:42 PM 48.2 °F - 48.2 °F 100% 30.21 in 6.0 mi SSE 15.0 mph - 0.01 in   Overcast
1:56 PM 48.9 °F - 48.9 °F 100% 30.22 in 7.0 mi SSE 12.7 mph - 0.01 in   Overcast
2:12 PM 48.2 °F - 48.2 °F 100% 30.20 in 7.0 mi SE 13.8 mph - N/A   Overcast
2:41 PM 50.0 °F - 48.2 °F 94% 30.21 in 8.0 mi South 12.7 mph - N/A   Overcast
2:56 PM 50.0 °F - 48.9 °F 96% 30.22 in 7.0 mi SSE 13.8 mph - N/A   Overcast
3:24 PM 50.0 °F - 48.2 °F 94% 30.22 in 8.0 mi SSE 12.7 mph - N/A   Overcast
3:56 PM 48.9 °F - 48.9 °F 100% 30.20 in 7.0 mi SE 10.4 mph - N/A   Overcast
4:38 PM 50.0 °F - 50.0 °F 100% 30.19 in 7.0 mi SSE 11.5 mph - 0.00 in   Overcast
4:56 PM 50.0 °F - 50.0 °F 100% 30.20 in 6.0 mi SSE 11.5 mph - 0.00 in   Overcast
5:56 PM 48.9 °F - 48.9 °F 100% 30.19 in 2.5 mi SSE 15.0 mph - 0.03 in Rain Light Rain
6:05 PM 48.2 °F - 48.2 °F 100% 30.18 in 4.0 mi South 13.8 mph - 0.00 in Rain Light Rain
7:11 PM 48.2 °F - 48.2 °F 100% 30.18 in 2.5 mi SSE 13.8 mph - 0.02 in Rain Light Rain
7:20 PM 48.2 °F - 48.2 °F 100% 30.19 in 4.0 mi South 11.5 mph - 0.02 in Rain Light Rain
7:49 PM 48.2 °F - 48.2 °F 100% 30.19 in 2.5 mi South 10.4 mph - 0.03 in Rain Light Rain
7:56 PM 48.9 °F - 48.9 °F 100% 30.20 in 2.0 mi SSE 9.2 mph - 0.04 in Rain Light Rain
8:04 PM 48.2 °F - 48.2 °F 100% 30.19 in 1.8 mi South 11.5 mph - 0.01 in Rain Rain
8:30 PM 48.2 °F - 48.2 °F 100% 30.19 in 1.0 mi SSE 13.8 mph - 0.08 in Rain Heavy Rain
8:46 PM 48.2 °F - 48.2 °F 100% 30.18 in 1.5 mi SSE 12.7 mph - 0.15 in Rain Rain
8:56 PM 48.9 °F - 48.9 °F 100% 30.19 in 1.2 mi SSE 11.5 mph - 0.17 in Rain Light Rain
9:25 PM 48.2 °F - 48.2 °F 100% 30.19 in 1.5 mi SSE 12.7 mph - 0.07 in Rain Rain
9:56 PM 48.9 °F - 48.9 °F 100% 30.20 in 2.5 mi SSE 9.2 mph - 0.10 in Rain Light Rain
10:03 PM 48.2 °F - 48.2 °F 100% 30.19 in 4.0 mi South 11.5 mph - 0.02 in Rain Light Rain
10:26 PM 48.2 °F - 48.2 °F 100% 30.19 in 4.0 mi SSE 12.7 mph - 0.06 in Rain Rain
10:37 PM 48.2 °F - 48.2 °F 100% 30.19 in 2.5 mi SSE 10.4 mph - 0.08 in Rain Rain
10:56 PM 48.9 °F - 48.9 °F 100% 30.20 in 3.0 mi South 10.4 mph - 0.11 in Rain Light Rain
11:01 PM 48.2 °F - 48.2 °F 100% 30.19 in 1.8 mi South 12.7 mph - 0.03 in Rain Heavy Rain
11:12 PM 48.2 °F - 48.2 °F 100% 30.20 in 1.2 mi Variable 6.9 mph - 0.11 in Rain Heavy Rain
11:20 PM 48.2 °F - 48.2 °F 100% 30.20 in 0.8 mi South 10.4 mph - 0.21 in Rain Heavy Rain
11:35 PM 48.2 °F - 48.2 °F 100% 30.20 in 1.0 mi SSE 6.9 mph - 0.34 in Rain Heavy Rain
11:43 PM 48.2 °F - 48.2 °F 100% 30.20 in 0.8 mi Variable 6.9 mph - 0.37 in Rain Rain
11:56 PM 47.8 °F - 47.8 °F 100% 30.20 in 0.8 mi South 10.4 mph - 0.42 in Rain Rain